Location: Banios
(43.0451°N, 0.2335°E)
Time: 13:42:31
(UTC+00:00)

Cosmos 1980 - Pass Details

Date: 25 January 2021
Orbit: 841 x 845 km, 71.0° (Epoch: 25 February)

Event Time Altitude Azimuth Distance (km) Brightness Sun altitude
Exits shadow 04:44:03 74° 158° (SSE) 875 3.7 -28.6°
Maximum altitude 04:44:27 79° 112° (ESE) 861 3.7 -28.5°
Drops below altitude 10° 04:50:06 10° 27° (NNE) 2,466 6.4 -27.5°
Sets 04:52:33 0° 26° (NNE) 3,404 7.2 -27.0°
